Погода Айон Остров

Погода Айон Остров : погода сейчас, прогноз погоды и архив. Всё, что Вы хотите узнать о погоде Айон Остров!

Поиск расширенной информации на нашем сайте:

Другие новости

Новости СМИ2

Главная страница сайта

Новости сайта

02.10.2013

Напоминаем, что на нашем новом сайте вы можете получить высокодетализированные прогнозы погоды по пунктам России, СНГ и мира (включающие важные для авиации метеовеличины, такие как направление и скорость ветра, видимость, явления погоды, количество и форма облачности, нижняя и верхняя граница облачности), а также ознакомиться с разнообразными материалами по авиационной метеорологии и подборкой полезных ссылок на эту тему.

Сайт Метеоцентр.Азия посвящён разработке технологий оптимизации авиаметеорологического обслуживания, включая проектирование и перспективное создание нескольких автоматизированных авиаметеорологических систем:
- система выпуска высокодетальных прогностических карт явлений погоды для нижнего воздушного пространства по России и ближнему зарубежью;
- система верификации прогнозов TAF (выпускаемых синоптиками официальных АМСГ РФ и ближнего зарубежья) и AUTOTAF (выпускаемых сайтом Метеоцентр.Азия) - выявление ошибок, онлайн-сопоставление с фактической погодой METAR, автоматическое внесение коррективов в прогнозы при резком отклонении фактической погоды от прогноза, подсчёт оправдываемости прогнозов по элементам и в целом;
- система обработки, анализа и отображения авиаметеорологической информации для применения провайдерами метеорологической информации.


Погода Айон Остров - сегодня

Время (UTC), дата Ветер
(°,м/с) 
Видим.   Явления Облачность Т
(°С)
Тd
(°С)
f(%) Тe
(°С)
Pmin
(гПа)
dP
(гПа)
Po
(мм)
O2
(г/м3)
Тmin Tmax R s Состояние
почвы
21 25.04.17 110 (В) 4-5{09}  20000 м    10/10 270 м 
[St]
-8.5 -10 89 -12  1017.6  -0.2  762  318  -8.8      10  неравномерный
мокрый или
старый снег
100% 
00 26.04.17 110 (В) 2-3{08}  20000 м    10/10 300 м 
[St]
-6.6 -8.2 88 -8  1017.3  -0.3  762  315           
03 26.04.17 140 (ЮВ) 2-3{06}  20000 м    6/3 200 м средняя 
[St|Ac trans]
-6.5 -8.5 86 -8  1016.7  -0.6  761  315           
06 26.04.17 160 (Ю) 2-2{03}  20000 м    3/3 200 м 
[St]
-7.7 -9.5 87 -9  1016.3  -0.4  761  316           
09 26.04.17 230 (ЮЗ) 1-2{03}  20000 м    9/8 420 м средняя 
[St|Ac trans]
-9.1 -10.6 89 -9  1016.2  -0.1  761  318    -5.4       
12 26.04.17 100 (В) 3-3{03}  4000 м  дымка  10/10 100 м 
[St]
-9.4 -9.9 96 -12  1015.9  -0.3  761  318           
15 26.04.17 190 (Ю) 3-3{03}  0200 м  переохл. туман  ?/?  
-10.4 -10.4 100 -13  1015.3  -0.6  760  319           
18 26.04.17 150 (ЮВ) 2-3{03}  0200 м  переохл. туман  ?/?  
-10.8 -10.8 100 -13  1015  -0.3  760  320           
21 26.04.17 120 (ЮВ) 2-3{04}  0200 м  переохл. туман  ?/?  
-10.4 -10.4 100 -12  1014.6  -0.4  760  319  -10.9      10  неравномерный
мокрый или
старый снег
100% 
00 27.04.17 130 (ЮВ) 3-4{04}  20000 м  {туман}  10/10 150 м 
[St]
-10.4 -11.7 90 -13  1013.9  -0.8  759  319           
03 27.04.17 130 (ЮВ) 3-4{05}  20000 м    8/8 210 м 
[St]
-9.7 -11.4 87 -13  1013  -0.8  758  318           
06 27.04.17 110 (В) 3-3{05}  20000 м    4/3 300 м верхняя 
[St|Ci fib]
-10.1 -12.1 85 -13  1012.3  -0.7  758  318           
09 27.04.17 110 (В) 5-6{07}  20000 м    8/0 средняя, верхняя 
[Ac trans|Ci fib]
-12.9 -14.9 85 -18  1011.3  -1  757  322    -9.4       
12 27.04.17 140 (ЮВ) 6-7{09}  20000 м    8/0 средняя, верхняя 
[Ac trans|Ci fib]
-14.4 -16.4 85 -21  1010.7  -0.6  757  323           
15 27.04.17 130 (ЮВ) 5-6{07}  20000 м    10/0 средняя, верхняя 
[Ac trans|Ci fib]
-13.9 -15.9 85 -19  1009.6  -1.1  756  322           
18 27.04.17 090 (В) 2-3{06}  20000 м    9/3 200 м средняя 
[St|Ac trans]
-15.5 -16.8 90 -18  1008.8  -0.8  755  324           
21 27.04.17 090 (В) 5-7{08}  20000 м    10/3 300 м средняя 
[St|Ac und]
-12.7 -14 90 -18  1008.3  -0.5  755  320  -16.9      10  неравномерный
мокрый или
старый снег
100% 
00 28.04.17 120 (ЮВ) 6-8{09}  20000 м    4/0 средняя 
[Ac trans]
-8.1 -9.9 87 -13  1007.5  -0.8  754  314           
03 28.04.17 150 (ЮВ) 6-8{10}  20000 м    3/0 средняя 
[Ac trans]
-6.5 -8.5 86 -11  1006.9  -0.6  754  312           
06 28.04.17 150 (ЮВ) 6-7{09}  20000 м    3/0 верхняя 
[Ci fib]
-7.4 -9.1 88 -12  1006.8  -0.1  754  313           
09 28.04.17 150 (ЮВ) 7-8{08}  20000 м    3/0 средняя, верхняя 
[Ac trans|Ci fib]
-9.7 -11.3 88 -16  1006.6  -0.2  754  316    -6.5       
12 28.04.17 140 (ЮВ) 8-9{10}  20000 м    8/0 средняя 
[Ac trans]
-9.9 -11.1 91 -16  1006.4  -0.2  753  316           
18 28.04.17 150 (ЮВ) 9-10{11}  20000 м    3/0 средняя 
[Ac trans]
-13.6 -14.9 90 -21  1006.1  753  321           
21 28.04.17 160 (Ю) 9-10{11}  20000 м    ясно 
-11.1 -13.1 85 -18  1006.1  753  318  -14.3      10  неравномерный
мокрый или
старый снег
100% 
00 29.04.17 140 (ЮВ) 7-9{11}  20000 м    ясно 
-8.3 -10.4 85 -14  1006.8  0.7  754  314           
Время (UTC), дата Ветер
(°,м/с) 
Видим.   Явления Облачность Т
(°С)
Тd
(°С)
f(%) Тe
(°С)
Pmin
(гПа)
dP
(гПа)
Po
(мм)
O2
(г/м3)
Тmin Tmax R s Состояние
почвы

Для получения пояснительной информации подведите курсор к названию столбца.

ПОГОДА Айон Остров - архив

Всё, что Вы хотите узнать о погоде Айон Остров - удобно и подробно!

Выберите нужную дату (начиная с 1 января 2015* года) и нажмите кнопку "Найти".
Будут отображены архивные сводки погоды по пункту Айон Остров, начиная с указанной даты.


Отображать данные в формате CSV (для использования в таблицах Excel)


Внимание! Наш архив погоды предназначен исключительно для личного некоммерческого использования в познавательных целях. Если Вам необходимы официальные справки о состоянии погоды (для производственных, юридических, коммерческих и т.п. целей), обращайтесь в органы Росгидромета.

*Примечание: данная дата относится к архиву по метеостанциям СССР (Россия, СНГ, Балтия).
Архив по метеостанциям Зарубежной Европы и Азии (кроме Китая) хранится 10 дней, по другим регионам земного шара (Китай, Африка, Америка, Австралия, Океания) - 1 день.

Айон Остров - район местоположения метеостанции


Название, широта, долгота, высота метеостанции:
Айон Остров 69.8°ш. 168.7°д. 16 м над ур. моря [Российская Федерация]

Дополнительная информация

В oтличие oт бoльшинства пoгoдных сайтoв мы публикуем пoдрoбную метеoинфoрмацию в детальнoм прoфессиoнальнoм фoрмате.

Характеристики температуры и влажнoсти вoздуха измеряются на высoте 2 м в тени вдали oт зданий и деревьев.
Скoрoсть ветра измеряется на высoте 10 м (на урoвне рoста челoвека скoрoсть ветра ниже в 1.5-2 раза). Если метеoстанция нахoдится в гoрoде или в лесу, тo скoрoсть ветра занижена на 2-4 м/с пo сравнению с oткрытым местoм. Скoрoсть ветра над акватoриями крупных рек и oзёр, а также на вершинах хoлмoв на 2-5 м/с выше, чем в oбычных услoвиях.
Атмoсфернoе давление в разных тoчках местнoсти мoжет значительнo oтличаться oт давления на метеoстанции, в зависимoсти oт услoвий рельефа (при пoдъёме на 10 м давление пoнижается примернo на 1 мм рт.ст.).